Regional Weather Roundup
Issued by NWS Boston, MA

Home | Current Version | Previous Version | Text Only | Print | Product List | Glossary On
Versions: 1 2 3 4 5 6 7 8 9 10 11 12 13 14 15 16 17 18 19 20 21 22 23 24 25 26 27 28 29 30 31 32 33 34 35 36 37 38 39 40 41 42 43 44 45 46 47 48 49 50
000
ASUS41 KBOX 290410
RWRBOX

REGIONAL WEATHER ROUNDUP
NATIONAL WEATHER SERVICE TAUNTON MA
1200 AM EDT SUN MAR 29 2015

NOTE:  "FAIR" INDICATES FEW OR NO CLOUDS BELOW 12,000 FEET WITH NO
SIGNIFICANT WEATHER AND/OR OBSTRUCTIONS TO VISIBILITY.  THE FOLLOWING
OBSERVATION LOCATIONS DO NOT REPORT PRESENT WEATHER...PROVINCETOWN...
SMITHFIELD...BLOCK ISLAND...KEENE...AND OXFORD.

MAZALL-290500-
EASTERN MASSACHUSETTS

CITY           SKY/WX    TMP DP  RH WIND       PRES   REMARKS
BOSTON         CLOUDY    32  19  58 NW16G25   30.02R WCI  21
BEVERLY        CLOUDY    31  18  58 NW10      30.01R WCI  22
LAWRENCE       CLOUDY    29  13  51 NW13G23   30.04R WCI  19
BEDFORD        CLOUDY    29  18  63 NW16      30.02R WCI  17
BLUE HILL        N/A     27  22  81 NW12G20   29.98R WCI  17
NORWOOD        CLOUDY    31  26  82 NW3       30.02R
MARSHFIELD     CLOUDY    32  32 100 NW3       30.02S
PLYMOUTH       CLOUDY    32  30  92 NW5       30.01R WCI  27
TAUNTON        CLOUDY    31  29  92 NW5       30.01S WCI  26
NEW BEDFORD    LGT SNOW  32  30  92 VRB7      30.01R FOG     WCI  26
$$

MAZALL-290500-
CAPE COD AND THE ISLANDS

CITY           SKY/WX    TMP DP  RH WIND       PRES   REMARKS
FALMOUTH       LGT SNOW  32  32 100 NW7       30.00R WCI  26
HYANNIS        CLOUDY    32  31  96 W3        29.98R
CHATHAM        CLOUDY    31  30  96 NW3       29.99R
PROVINCETOWN   CLOUDY    34  30  86 NW9       30.00R WCI  26
NANTUCKET      CLOUDY    33  29  85 NE5       29.98R WCI  29
MARTHAS VNYRD  LGT SNOW  32  28  85 NW5       30.00R FOG     WCI  27
$$

MAZALL-290500-
CENTRAL AND WESTERN MASSACHUSETTS

CITY           SKY/WX    TMP DP  RH WIND       PRES   REMARKS
WORCESTER      CLOUDY    24  16  71 NW13G20   29.99R WCI  12
FITCHBURG      CLOUDY    28  14  55 NW12      30.04R WCI  18
ORANGE         CLOUDY    24   5  44 NW15      30.05R WCI  11
SPRINGFIELD    CLOUDY    28  12  50 N15G22    30.06R WCI  16
WESTFIELD      CLOUDY    28  12  51 N20G25    30.06R WCI  15
NORTH ADAMS    MOCLDY    24   8  50 W7        30.09R WCI  16
PITTSFIELD     CLOUDY    21  13  71 NW8       30.03R WCI  11
$$

RIZALL-290500-
RHODE ISLAND

CITY           SKY/WX    TMP DP  RH WIND       PRES   REMARKS
PROVIDENCE     FLURRIES  31  27  85 N14G20    30.03R WCI  21
NEWPORT        LGT SNOW  31  29  92 N9        30.01R FOG     WCI  23
BLOCK ISLAND   CLOUDY    32  30  93 NE5       30.01R WCI  27
SMITHFIELD     PTCLDY    27  19  74 NW12G18   30.00R WCI  16
WESTERLY       LGT SNOW  31  28  89 N12       30.03R FOG     WCI  22
$$

CTZALL-290500-
CONNECTICUT

CITY           SKY/WX    TMP DP  RH WIND       PRES   REMARKS
BRADLEY INTL   CLOUDY    30  16  56 N15G23    30.06R WCI  19
HARTFORD       CLOUDY    30  17  58 N10G20    30.07R WCI  21
BRIDGEPORT     CLOUDY    28  22  78 NW12      30.08R WCI  18
DANBURY        CLOUDY    25  13  60 VRB7      30.10R WCI  17
GROTON         CLOUDY    30  26  85 N14G21    30.03R WCI  19
NEW HAVEN      CLOUDY    29  25  85 NW7       30.06R WCI  22
CHESTER        LGT SNOW  28  27  93 N14G20    30.04R WCI  17
MERIDEN        CLOUDY    29  22  75 NW8       30.07R WCI  21
WILLIMANTIC    LGT SNOW  28  24  85 NW7       30.05R FOG     WCI  21
OXFORD         CLOUDY    25  14  63 N13       30.05R WCI  13
$$

MEZ002-015-021-024-NHZ003-005-008-011-012-014-VTZ005-008-290500-
NORTHERN NEW ENGLAND

CITY           SKY/WX    TMP DP  RH WIND       PRES   REMARKS
PORTLAND ME    PTCLDY    30  13  49 N13       30.01R WCI  20
BANGOR ME      CLOUDY    29   9  43 N15       29.96R WCI  18
CONCORD NH     PTCLDY    26   4  38 NW17G24   30.04R WCI  13
MANCHESTER NH  PTCLDY    27  12  53 NW10      30.03R WCI  17
NASHUA NH      PTCLDY    28   9  45 NW14G23   30.05R WCI  17
PORTSMOUTH NH  CLOUDY    29  14  53 NW14      30.01R WCI  19
JAFFREY NH     MOCLDY    21   4  47 N8        30.02R WCI  11
KEENE NH       PTCLDY    25   3  39 N7        30.06S WCI  17
BURLINGTON VT  CLEAR     18   9  68 CALM      30.12R
MT. WASHINGTON MOCLDY     0 -11  60 N13         N/A  WCI -18
$$

NYZ052-076-290500-
EASTERN NEW YORK

CITY           SKY/WX    TMP DP  RH WIND       PRES   REMARKS
ALBANY         MOCLDY    25   8  48 NW12G17   30.15R WCI  14
NEW YORK CITY  FLURRIES  29  19  66 NW14G22   30.12R WCI  18
$$

ANZALL-290500-
MARINE OBSERVATIONS

STATION/POSITION TIME  TEMP    WIND        PRES    VSBY  WAVE
                       AIR SEA DIR/SP/G                  HT/PER
                 (UTC) (F)     (DEG/KT/KT) (MB)    (MI)  (FT/S)
BOSTON BUOY      0350   33 36  330/ 16/ 19 1016.1R         6/ 8
BUZZARDS BAY     0300          360/ 10/ 12 1016.3R
NANTUCKET SOUND  0350   36 37   20/  6/  8 1015.4R         2/ 9
MASS BAY-STELLWA 0304   34 36  310/ 12/ 16   N/A    1 7/8  8/ 8
ISLE OF SHOALS   0300   34     320/ 19/ 22 1014.4R
S OF BLOCK IS    0308      37                N/A           5/11
$$

......................KEY.........................
  SKY/WX - SKY CONDITION/PRESENT WEATHER
  TMP    - TEMPERATURE IN FAHRENHEIT
  DWPT   - DEWPOINT IN FAHRENHEIT
  RH     - RELATIVE HUMIDITY IN PERCENT
  WIND   - DIRECTION AND SPEED IN MPH
  PRES   - MEAN SEA LEVEL PRESSURE IN INCHES OF HG
  WCI    - WIND CHILL INDEX
  VSB    - VISIBILITY IN MILES
  HX     - HEAT INDEX
  TC     - TEMPERATURE IN CELSIUS
  VRB    - VARIABLE WIND DIRECTION
  N/A    - NOT AVAILABLE


USA.gov is the U.S. government's official web portal to all federal, state and local government web resources and services.